FW9556 Weather Reports


time (UTC)temp
C
wind
direction
speed
KPH
gust
KPH
rain 1hr
cm
rain 24hr
cm
rain mn
cm
humidity
%
barometer
mb
20260503060107 8 190 4.8 11.3 0.00 0.08 0.00 98 1010.5
20260503054539 8 190 4.8 11.3 0.00 0.08 0.00 98 1010.6
20260503053038 8 190 4.8 12.9 0.00 0.08 0.00 98 1010.5
20260503051540 8 190 4.8 14.5 0.00 0.08 0.00 98 1010.5
20260503050043 8 190 4.8 12.9 0.00 0.08 0.00 97 1010.4
20260503044537 8 190 4.8 11.3 0.00 0.08 0.00 97 1010.5
20260503043047 8 190 3.2 11.3 0.00 0.08 0.00 96 1010.6
20260503041538 8 0 0.0 6.4 0.00 0.08 0.00 95 1010.5
20260503040052 8 0 0.0 3.2 0.00 0.08 0.00 95 1010.5
20260503034544 8 190 0.0 6.4 0.00 0.08 0.00 95 1010.6
20260503033038 8 190 1.6 4.8 0.00 0.08 0.00 95 1010.8
20260503031537 8 190 1.6 3.2 0.00 0.08 0.00 95 1010.8
20260503030037 8 190 1.6 6.4 0.00 0.08 0.00 95 1010.7
20260503024538 8 190 1.6 3.2 0.00 0.08 0.00 95 1010.7
20260503023052 8 190 0.0 1.6 0.00 0.08 0.00 95 1010.9
20260503021550 9 0 0.0 4.8 0.00 0.08 0.00 95 1010.9
20260503020047 9 190 1.6 6.4 0.00 0.08 0.00 95 1010.9
20260503014537 9 0 0.0 0.0 0.00 0.08 0.00 95 1011.0
20260503013040 8 0 0.0 1.6 0.00 0.08 0.00 94 1011.0
20260503011538 9 190 1.6 3.2 0.00 0.08 0.00 94 1011.0
20260503010036 9 190 0.0 3.2 0.00 0.08 0.00 94 1011.1
20260503004608 9 0 1.6 3.2 0.00 0.08 0.00 94 1011.1
20260503003056 9 0 0.0 0.0 0.00 0.08 0.00 94 1011.2
20260503001542 9 0 0.0 0.0 0.00 0.08 0.00 94 1011.2
20260503000040 9 0 0.0 0.0 0.00 0.08 0.00 94 1011.2
20260502234538 9 0 0.0 0.0 0.00 0.08 0.00 94 1011.3
20260502233037 9 0 0.0 0.0 0.00 0.08 0.00 94 1011.4
20260502231536 9 0 0.0 6.4 0.00 0.08 0.00 95 1011.4
20260502230045 9 190 0.0 3.2 0.00 0.08 0.00 95 1011.4
20260502224540 9 190 0.0 6.4 0.00 0.08 0.08 95 1011.4
20260502223037 9 190 4.8 8.0 0.00 0.08 0.08 95 1011.3
20260502221538 9 190 1.6 9.7 0.00 0.08 0.08 95 1011.5
20260502220038 9 190 1.6 8.0 0.00 0.08 0.08 95 1011.5
20260502214542 10 190 1.6 8.0 0.00 0.08 0.08 95 1011.4
20260502213054 10 190 0.0 3.2 0.00 0.08 0.08 95 1011.4
20260502211542 10 0 0.0 3.2 0.00 0.08 0.08 95 1011.4
20260502210042 9 0 0.0 4.8 0.00 0.08 0.08 95 1011.5
20260502204539 9 190 1.6 8.0 0.00 0.08 0.08 95 1011.4
20260502203040 9 190 3.2 11.3 0.00 0.08 0.08 95 1011.4
20260502201541 9 190 0.0 6.4 0.00 0.08 0.08 94 1011.4
20260502194549 10 190 1.6 6.4 0.00 0.08 0.08 94 1011.4
20260502193040 10 0 0.0 3.2 0.00 0.08 0.08 93 1011.3
20260502191536 11 190 0.0 6.4 0.00 0.08 0.08 92 1011.3
20260502190038 11 190 0.0 4.8 0.00 0.08 0.08 92 1011.1
20260502184536 11 0 0.0 6.4 0.00 0.08 0.08 91 1011.2
20260502183045 11 0 1.6 6.4 0.00 0.08 0.08 90 1011.2
20260502181537 11 190 3.2 6.4 0.00 0.08 0.08 89 1010.9
20260502163038 13 190 3.2 17.7 0.00 0.08 0.08 84 1011.3
20260502161542 14 190 4.8 12.9 0.00 0.08 0.08 84 1011.2
20260502151537 13 190 3.2 9.7 0.03 0.08 0.08 84 1011.8
20260502123038 13 190 1.6 6.4 0.00 0.00 0.00 82 1012.8
20260502121537 13 190 3.2 9.7 0.00 0.00 0.00 81 1013.0
20260502114539 13 190 0.0 4.8 0.00 0.00 0.00 82 1013.0
20260502113054 12 0 0.0 1.6 0.00 0.00 0.00 85 1013.0
20260502111543 12 190 0.0 3.2 0.00 0.00 0.00 87 1013.2
20260502110037 12 0 0.0 3.2 0.00 0.00 0.00 87 1013.3
20260502104541 12 190 0.0 4.8 0.00 0.00 0.00 87 1013.3
20260502103059 12 190 1.6 4.8 0.00 0.00 0.00 87 1013.5
20260502101550 12 190 1.6 11.3 0.00 0.00 0.00 86 1013.5
20260502070043 10 190 3.2 6.4 0.00 0.00 0.00 94 1013.4
20260502064539 10 190 0.0 9.7 0.00 0.00 0.00 95 1013.4
20260502063045 10 190 4.8 8.0 0.00 0.00 0.00 95 1013.4